CW5398 Weather Reports


Display with metric or nautical units.
time (UTC)temp
F
wind
direction
speed
MPH
gust
MPH
rain 1hr
in
rain 24hr
in
rain mn
in
humidity
%
barometer
mb
20260901235517 62 254 0.0 0.0 0.00 0.00 0.00 77 1008.6
20260901234517 62 254 0.0 0.0 0.00 0.00 0.00 78 1008.6
20260901233517 62 254 0.0 0.0 0.00 0.00 0.00 77 1008.6
20260901232517 62 248 0.0 2.0 0.00 0.00 0.00 77 1008.5
20260901231517 62 254 0.0 0.0 0.00 0.00 0.00 78 1008.5
20260901230517 62 254 0.0 0.0 0.00 0.00 0.00 80 1008.6
20260901225517 61 248 0.0 1.0 0.00 0.00 0.00 81 1008.5
20260901224517 61 254 0.0 0.0 0.00 0.00 0.00 82 1008.5
20260901223537 61 248 1.0 4.0 0.00 0.00 0.00 83 1008.6
20260901222517 61 248 0.0 1.0 0.00 0.00 0.00 82 1008.8
20260901221537 60 248 0.0 1.0 0.00 0.00 0.00 82 1008.8
20260901220517 60 254 0.0 0.0 0.00 0.00 0.00 83 1008.8
20260901215516 60 248 1.0 4.0 0.00 0.00 0.00 82 1009.0
20260901214517 60 248 1.0 3.0 0.00 0.00 0.00 82 1009.0
20260901213517 60 248 0.0 1.0 0.00 0.00 0.00 81 1009.0
20260901212517 61 248 1.0 4.0 0.00 0.00 0.00 81 1009.1
20260901211516 61 248 0.0 1.0 0.00 0.00 0.00 80 1009.1
20260901210517 61 248 0.0 2.0 0.00 0.00 0.00 79 1009.2
20260901205517 62 248 1.0 4.0 0.00 0.00 0.00 77 1009.1
20260901204516 63 248 1.0 5.0 0.00 0.00 0.00 76 1009.1
20260901203516 64 248 1.0 4.0 0.00 0.00 0.00 74 1009.1
20260901202556 65 270 1.0 7.0 0.00 0.00 0.00 72 1009.1
20260901201516 66 270 1.0 6.0 0.00 0.00 0.00 71 1009.1
20260901200516 66 270 2.0 7.0 0.00 0.00 0.00 69 1009.0
20260901195517 66 270 1.0 6.0 0.00 0.00 0.00 68 1009.0
20260901194517 66 270 2.0 5.0 0.00 0.00 0.00 70 1009.0
20260901193516 66 293 2.0 6.0 0.00 0.00 0.00 69 1009.1
20260901192536 66 293 1.0 4.0 0.00 0.00 0.00 69 1009.1
20260901191516 66 293 0.0 1.0 0.00 0.00 0.00 72 1009.1
20260901190516 65 293 0.0 3.0 0.00 0.00 0.00 72 1009.1
20260901185516 64 293 1.0 5.0 0.00 0.00 0.00 74 1009.1
20260901184516 64 293 1.0 5.0 0.00 0.00 0.00 75 1009.1
20260901183516 63 293 2.0 6.0 0.00 0.00 0.00 75 1009.1
20260901182516 63 293 1.0 5.0 0.00 0.00 0.00 76 1009.1
20260901181516 62 293 2.0 4.0 0.00 0.00 0.00 78 1009.1
20260901180637 62 293 1.0 3.0 0.00 0.00 0.00 79 1009.1
20260901175516 61 293 0.0 1.0 0.00 0.00 0.00 80 1009.1
20260901174516 61 293 2.0 5.0 0.00 0.00 0.00 81 1009.1
20260901173516 60 293 0.0 1.0 0.00 0.00 0.00 82 1009.1
20260901172516 60 293 0.0 1.0 0.00 0.00 0.00 85 1009.1
20260901171516 58 286 0.0 0.0 0.00 0.00 0.00 88 1009.1
20260901170536 58 286 0.0 0.0 0.00 0.00 0.00 90 1009.1
20260901165516 57 293 0.0 1.0 0.00 0.00 0.00 91 1009.1
20260901164536 56 286 0.0 0.0 0.00 0.00 0.00 92 1009.1
20260901163536 56 293 1.0 3.0 0.00 0.00 0.00 94 1009.0
20260901162536 56 286 0.0 0.0 0.00 0.00 0.00 96 1009.0
20260901161536 56 293 0.0 2.0 0.00 0.00 0.00 97 1009.0
20260901160516 55 286 0.0 0.0 0.00 0.00 0.00 97 1009.0
20260901155516 55 293 0.0 1.0 0.00 0.00 0.00 98 1009.0
20260901154536 55 293 1.0 4.0 0.00 0.00 0.00 98 1009.0
20260901153516 54 286 0.0 0.0 0.00 0.00 0.00 98 1008.8
20260901152516 54 286 0.0 0.0 0.00 0.00 0.00 98 1008.7
20260901151516 53 286 0.0 0.0 0.00 0.00 0.00 98 1008.7
20260901150516 53 286 0.0 0.0 0.00 0.00 0.00 98 1008.6
20260901145516 52 286 0.0 0.0 0.00 0.00 0.00 97 1008.6
20260901144516 52 286 0.0 0.0 0.00 0.00 0.00 97 1008.6
20260901143516 51 286 0.0 0.0 0.00 0.00 0.00 97 1008.6
20260901142536 51 286 0.0 0.0 0.00 0.00 0.00 97 1008.6
20260901141515 51 286 0.0 0.0 0.00 0.00 0.00 97 1008.6
20260901140515 51 286 0.0 0.0 0.00 0.00 0.00 97 1008.5
20260901135515 51 286 0.0 0.0 0.00 0.00 0.00 97 1008.4
20260901134515 51 286 0.0 0.0 0.00 0.00 0.00 97 1008.4
20260901133515 51 286 0.0 0.0 0.00 0.00 0.00 97 1008.3
20260901132515 50 286 0.0 0.0 0.00 0.00 0.00 96 1008.2
20260901131516 50 286 0.0 0.0 0.00 0.00 0.00 96 1008.2
20260901130516 50 286 0.0 0.0 0.00 0.00 0.00 96 1008.2
20260901125516 50 286 0.0 0.0 0.00 0.00 0.00 96 1008.3
20260901124535 50 286 0.0 0.0 0.00 0.00 0.00 96 1008.3
20260901123516 50 286 0.0 0.0 0.00 0.00 0.00 96 1008.2
20260901122516 50 286 0.0 0.0 0.00 0.00 0.00 96 1008.2
20260901121535 50 286 0.0 0.0 0.00 0.00 0.00 95 1008.2
20260901120515 50 286 0.0 0.0 0.00 0.00 0.00 95 1008.1
20260901115515 50 286 0.0 0.0 0.00 0.00 0.00 95 1008.2
20260901114516 50 286 0.0 0.0 0.00 0.00 0.00 96 1008.2
20260901113516 50 286 0.0 0.0 0.00 0.00 0.00 95 1008.2
20260901112515 51 286 0.0 0.0 0.00 0.00 0.00 95 1008.1
20260901111515 51 286 0.0 0.0 0.00 0.00 0.00 95 1008.1
20260901110515 50 286 0.0 0.0 0.00 0.00 0.00 95 1008.4
20260901105515 51 286 0.0 0.0 0.00 0.00 0.00 95 1008.5
20260901104515 51 286 0.0 0.0 0.00 0.00 0.00 95 1008.5
20260901103516 51 286 0.0 0.0 0.00 0.00 0.00 95 1008.3
20260901102517 51 286 0.0 0.0 0.00 0.00 0.00 94 1008.5
20260901101517 51 286 0.0 0.0 0.00 0.00 0.00 94 1008.5
20260901100517 51 286 0.0 0.0 0.00 0.00 0.00 94 1008.6
20260901095517 51 286 0.0 0.0 0.00 0.00 0.00 93 1008.5
20260901094515 51 286 0.0 0.0 0.00 0.00 0.00 93 1008.5
20260901093517 51 286 0.0 0.0 0.00 0.00 0.00 93 1008.4
20260901092517 51 286 0.0 0.0 0.00 0.00 0.00 93 1008.5
20260901091537 51 286 0.0 0.0 0.00 0.00 0.00 93 1008.5
20260901090517 52 286 0.0 0.0 0.00 0.00 0.00 93 1008.4
20260901085537 52 286 0.0 0.0 0.00 0.00 0.00 93 1008.2
20260901084537 52 286 0.0 0.0 0.00 0.00 0.00 92 1008.2
20260901083517 52 286 0.0 0.0 0.00 0.00 0.00 92 1008.1
20260901082557 52 286 0.0 0.0 0.00 0.00 0.00 92 1008.1
20260901081517 52 286 0.0 0.0 0.00 0.00 0.00 92 1008.1
20260901080517 52 286 0.0 0.0 0.00 0.00 0.00 91 1008.1
20260901075517 53 286 0.0 0.0 0.00 0.00 0.00 91 1008.1
20260901074517 53 286 0.0 0.0 0.00 0.00 0.00 91 1008.1
20260901073517 53 286 0.0 0.0 0.00 0.00 0.00 91 1008.1
20260901072517 53 286 0.0 0.0 0.00 0.00 0.00 91 1008.1
20260901071517 53 286 0.0 0.0 0.00 0.00 0.00 91 1008.1
20260901070517 53 286 0.0 0.0 0.00 0.00 0.00 90 1008.1
20260901065537 54 286 0.0 0.0 0.00 0.00 0.00 90 1008.3
20260901064536 54 286 0.0 0.0 0.00 0.00 0.00 90 1008.3
20260901063536 54 286 0.0 0.0 0.00 0.00 0.00 89 1008.2
20260901062517 54 286 0.0 0.0 0.00 0.00 0.00 89 1008.5
20260901061536 54 286 0.0 0.0 0.00 0.00 0.00 89 1008.5
20260901060517 55 286 0.0 0.0 0.00 0.00 0.00 88 1008.6
20260901055517 55 286 0.0 0.0 0.00 0.00 0.00 87 1008.6
20260901054516 55 286 0.0 0.0 0.00 0.00 0.00 87 1008.6
20260901053517 56 286 0.0 0.0 0.00 0.00 0.00 87 1008.6
20260901052617 56 286 0.0 0.0 0.00 0.00 0.00 86 1008.6
20260901051516 56 286 0.0 0.0 0.00 0.00 0.00 85 1008.6
20260901050516 56 286 0.0 0.0 0.00 0.00 0.00 85 1008.5
20260901045516 57 286 0.0 0.0 0.00 0.00 0.00 85 1008.5
20260901044536 57 286 0.0 0.0 0.00 0.00 0.00 84 1008.5
20260901043516 58 286 0.0 0.0 0.00 0.00 0.00 84 1008.5
20260901042516 58 286 0.0 0.0 0.00 0.00 0.00 84 1008.5
20260901041556 58 286 0.0 0.0 0.00 0.00 0.00 83 1008.5
20260901040536 59 286 0.0 0.0 0.00 0.00 0.00 82 1008.5
20260901035516 59 286 0.0 0.0 0.00 0.00 0.00 81 1008.5
20260901034516 60 286 0.0 0.0 0.00 0.00 0.00 80 1008.5
20260901033516 60 286 0.0 0.0 0.00 0.00 0.00 78 1008.4
20260901032516 61 286 0.0 0.0 0.00 0.00 0.00 77 1008.4
20260901031536 62 286 0.0 0.0 0.00 0.00 0.00 74 1008.5
20260901030516 63 286 0.0 0.0 0.00 0.00 0.00 73 1008.4
20260901025526 64 293 0.0 2.0 0.00 0.00 0.00 71 1008.5
20260901024536 65 286 0.0 0.0 0.00 0.00 0.00 70 1008.5
20260901023536 66 286 0.0 0.0 0.00 0.00 0.00 68 1008.5
20260901022516 66 286 0.0 0.0 0.00 0.00 0.00 65 1008.6
20260901021516 66 286 0.0 0.0 0.00 0.00 0.00 64 1008.6
20260901020516 67 293 0.0 1.0 0.00 0.00 0.00 62 1008.6
20260901015516 66 293 0.0 1.0 0.00 0.00 0.00 62 1008.7
20260901014516 66 286 0.0 0.0 0.00 0.00 0.00 62 1008.7
20260901013516 66 293 0.0 2.0 0.00 0.00 0.00 62 1008.7
20260901012516 66 293 0.0 3.0 0.00 0.00 0.00 61 1009.0
20260901011515 66 293 0.0 1.0 0.00 0.00 0.00 62 1009.0
20260901010516 67 293 0.0 1.0 0.00 0.00 0.00 60 1009.0
20260901005515 67 293 0.0 3.0 0.00 0.00 0.00 61 1009.1
20260901004516 67 293 0.0 3.0 0.00 0.00 0.00 58 1009.1
20260901003515 68 293 1.0 5.0 0.00 0.00 0.00 60 1009.1
20260901002516 68 293 1.0 5.0 0.00 0.00 0.00 61 1009.4
20260901001516 68 293 1.0 5.0 0.00 0.00 0.00 61 1009.4
20260901000515 68 293 1.0 5.0 0.00 0.00 0.00 61 1009.4